User: anonymous   Login
Location: Theydon Bois
(51.6750°N, 0.1050°E)
Time: 04:12:35
(UTC+00:00)
Language:

Envisat - Orbit

View from above orbital plane
View from above orbital plane
View from above satellite
View from above satellite

Ground track
Ground track

The orbit data is extracted from the following two-line orbital elements,

1 27386U 02009A   17344.43921278 +.00000021 +00000-0 +20700-4 0  9998
2 27386 098.2102 022.1537 0001517 083.9911 276.1451 14.37910823826409
Epoch (UTC): 10 December 2017 10:32:27
Eccentricity: 0.0001517
inclination: 98.2102°
perigee height: 764 km
apogee height: 766 km
right ascension of ascending node: 22.1537°
argument of perigee: 83.9911°
revolutions per day: 14.37910823
mean anomaly at epoch: 276.1451°
orbit number at epoch: 82640

The dashed part of the orbit path shows where the satellite is in the earth's shadow,  

DLR